Regional Weather Roundup
Issued by NWS

Home | Current Version | Previous Version | Graphics & Text | Print | Product List | Glossary On
Versions: 1 2 3 4 5 6 7 8 9 10 11 12 13 14 15 16 17 18 19 20 21 22 23 24 25 26 27 28 29 30 31 32 33 34 35 36 37 38 39 40 41 42 43 44 45 46 47 48 49 50
948
ASUS44 KJAN 021410
RWRMS

MISSISSIPPI HOURLY WEATHER ROUNDUP
NATIONAL WEATHER SERVICE JACKSON MS
900 AM CDT TUE SEP 02 2014

NOTE: "FAIR: INDICATES FEW OR NO CLOUDS BELOW 12,000 FEET WITH NO
SIGNIFICANT WEATHER AND/OR OBSTRUCTIONS TO VISIBILITY.

MSZ001>002-007>008-010>013-018>021-025>028-034>036-021500-
NORTHWEST MISSISSIPPI

CITY           SKY/WX    TMP DP  RH WIND       PRES   REMARKS
CLARKSDALE     CLOUDY    79  79 100 CALM      30.06S
CLEVELAND      CLOUDY    78  77  96 SW3       30.05R
GREENWOOD      CLOUDY    79  74  84 S7        30.06S
GREENVILLE     CLOUDY    79  76  90 SW8       30.05R
GRENADA        FAIR      79  73  83 S3        30.07S
OLIVE BRANCH   CLOUDY    75  75 100 SW12      30.06R
OXFORD         PTSUNNY   77  73  88 SW8       30.09R
TUNICA         CLOUDY    79  73  83 S8        30.05S
$$

MSZ003>006-009-014>017-022>024-029>033-037>039-021500-
NORTHEAST MISSISSIPPI

CITY           SKY/WX    TMP DP  RH WIND       PRES   REMARKS
BELMONT        FAIR      79  74  84 SW6       30.08F
COLUMBUS AFB   SUNNY     82  74  76 SW7       30.08F
CORINTH        PTSUNNY   81  73  78 SW9G15    30.06S
GOLDN TRIANGLE MOSUNNY   81  72  74 SW6       30.10R
STARKVILLE     FAIR      79  73  83 CALM      30.09R
TUPELO         MOSUNNY   81  73  76 SW7       30.07F
$$

MSZ040-058-021500-
CENTRAL MISSISSIPPI

CITY           SKY/WX    TMP DP  RH WIND       PRES   REMARKS
JACKSON INTL   CLOUDY    79  75  87 S6        30.08R
JACKSON HAWKNS PTSUNNY   80  75  84 S5        30.08R
MERIDIAN KEY   CLOUDY    77  74  90 S6        30.09R
MERIDIAN NAS   LGT RAIN  78  74  87 CALM      30.09R
RAYMOND        FAIR      79  73  83 SE3       30.07S
VICKSBURG      MOSUNNY   82  76  81 S9        30.05S
$$

MSZ059>079-021500-
SOUTH MISSISSIPPI

CITY           SKY/WX    TMP DP  RH WIND       PRES   REMARKS
BROOKHAVEN     CLOUDY    77  77 100 CALM      30.10R FOG
HATTIESBURG    CLOUDY    79  75  87 CALM      30.08S
MCCOMB         PTSUNNY   81  76  84 S8        30.07S
NATCHEZ        MOSUNNY   79  75  89 S7        30.06S
PINE BELT      CLOUDY    75  72  88 CALM      30.10R
$$

MSZ080>082-021500-
COASTAL MISSISSIPPI

CITY           SKY/WX    TMP DP  RH WIND       PRES   REMARKS
BAY ST LOUIS   MOSUNNY  N/A N/A N/A SE5       30.08
BILOXI         MOSUNNY   85  77  78 SE3       30.08S HX  95
PASCAGOULA     SUNNY     84  77  79 CALM      30.08S HX  94
GULFPORT       MOSUNNY   86  77  74 S3        30.07S HX  97
$$



USA.gov is the U.S. government's official web portal to all federal, state and local government web resources and services.